Location: Unspecified
(0.0000°N, 0.0000°E)
Time: 00:14:20
(UTC+00:00)

RS-15 - Pass Details

Date: 23 February 2026
Orbit: 1894 x 2150 km, 64.8° (Epoch: 7 March)

Event Time Altitude Azimuth Distance (km) Brightness Sun altitude
Rises 20:22:39 0° 176° (S) 5,405 10.4 -31.8°
Reaches altitude 10° 20:27:04 10° 162° (SSE) 4,366 9.8 -32.9°
Enters shadow 20:30:33 18° 145° (SE) 3,723 9.3 -33.8°
